START_TIME,STEP,MOV.,M34,t_acc.,L5,t_acc.,L18,t_acc.,L14,t_acc.
1979-07-29 06:00:23.830 ,0,1,0.,12.0,0.,12.0,0.,12.0,0.,12.0
1979-07-29 06:00:35.830 ,0,1,0.,12.0,0.,12.0,0.,12.0,0.,12.0
1979-07-29 06:00:47.830 ,3,1,0.,12.0,0.,12.0,0.,12.0,0.,12.0
1979-07-29 06:00:59.830 ,3,1,0.,12.0,0.,12.0,0.,12.0,0.,12.0
1979-07-29 06:01:11.830 ,7,1,0.,12.0,0.,12.0,0.,12.0,0.,12.0
1979-07-29 06:01:23.830 ,7,1,0.,12.0,0.,12.0,0.,12.0,0.,12.0
1979-07-29 06:01:35.830 ,4,1,0.,12.0,0.,12.0,0.,12.0,0.,12.0
1979-07-29 06:01:47.830 ,4,1,0.,12.0,0.,12.0,0.,12.0,0.,12.0
1979-07-29 06:01:59.830 ,0,1,0.,12.0,0.,12.0,0.,12.0,0.,12.0
1979-07-29 06:02:11.830 ,0,1,0.,12.0,0.,12.0,0.,12.0,0.,12.0
1979-07-29 06:02:23.830 ,3,1,0.,12.0,0.,12.0,0.,12.0,0.,12.0
1979-07-29 06:02:35.830 ,3,1,0.,12.0,0.,12.0,0.,12.0,0.,12.0
1979-07-29 06:02:47.830 ,7,1,0.,12.0,0.,12.0,0.,12.0,0.,12.0
1979-07-29 06:02:59.830 ,7,1,0.,12.0,0.,12.0,0.,12.0,0.,12.0
1979-07-29 06:03:11.830 ,4,1,0.,12.0,0.,12.0,0.,12.0,0.,12.0
1979-07-29 06:03:23.830 ,4,1,0.,12.0,0.,12.0,0.,12.0,0.,12.0
1979-07-29 06:03:35.830 ,0,1,0.,12.0,0.,12.0,0.,12.0,0.,12.0
1979-07-29 06:03:47.830 ,0,1,0.,12.0,0.,12.0,0.,12.0,0.,12.0
1979-07-29 06:03:59.830 ,3,1,0.,12.0,0.,12.0,0.,12.0,0.,12.0
1979-07-29 06:04:11.830 ,3,1,0.,12.0,0.,12.0,0.,12.0,0.,12.0
1979-07-29 06:04:23.830 ,7,1,0.,12.0,0.,12.0,0.,12.0,0.,12.0
1979-07-29 06:04:35.830 ,7,1,0.,12.0,0.,12.0,0.,12.0,0.,12.0
1979-07-29 06:04:47.830 ,4,1,0.,12.0,0.,12.0,0.,12.0,0.,12.0
1979-07-29 06:04:59.830 ,4,1,0.,12.0,0.,12.0,0.,12.0,0.,12.0
1979-07-29 06:05:11.830 ,0,1,0.,12.0,0.,12.0,0.,12.0,0.,12.0
1979-07-29 06:05:23.830 ,0,1,0.,12.0,0.,12.0,0.,12.0,0.,12.0
1979-07-29 06:05:35.830 ,0,0,0.,12.0,0.,12.0,0.,12.0,0.,12.0
1979-07-29 06:05:47.830 ,0,0,0.,12.0,0.,12.0,0.,12.0,0.,12.0
1979-07-29 06:05:59.830 ,0,0,0.,12.0,0.,12.0,0.,12.0,0.,12.0
1979-07-29 06:06:11.830 ,0,0,0.,12.0,0.,12.0,0.,12.0,0.,12.0
1979-07-29 06:06:23.830 ,5,1,0.,12.0,0.,12.0,0.,12.0,0.,12.0
1979-07-29 06:06:35.830 ,5,1,0.,12.0,0.,12.0,0.,12.0,0.,12.0
1979-07-29 06:06:47.830 ,5,0,0.,12.0,0.,12.0,0.,12.0,0.,12.0
1979-07-29 06:06:59.830 ,5,0,0.,12.0,0.,12.0,0.,12.0,0.,12.0
1979-07-29 06:07:11.830 ,4,1,0.,12.0,0.,12.0,0.,12.0,0.,12.0
1979-07-29 06:07:23.830 ,4,1,0.,12.0,0.,12.0,0.,12.0,0.,12.0
1979-07-29 06:07:35.830 ,4,0,0.,12.0,0.,12.0,0.,12.0,0.,12.0
1979-07-29 06:07:47.830 ,4,0,0.,12.0,0.,12.0,0.,12.0,0.,12.0
1979-07-29 06:07:59.830 ,3,1,0.,12.0,0.,12.0,0.,12.0,0.,12.0
1979-07-29 06:08:11.830 ,3,1,0.,12.0,0.,12.0,0.,12.0,0.,12.0
1979-07-29 06:08:23.830 ,3,0,0.,12.0,0.,12.0,0.,12.0,0.,12.0
1979-07-29 06:08:35.830 ,3,0,0.,12.0,0.,12.0,0.,12.0,0.,12.0
1979-07-29 06:08:47.830 ,2,1,0.,12.0,0.,12.0,0.,12.0,0.,12.0
1979-07-29 06:08:59.830 ,2,1,0.,12.0,0.,12.0,0.,12.0,0.,12.0
1979-07-29 06:09:11.830 ,2,0,0.,12.0,0.,12.0,0.,12.0,0.,12.0
1979-07-29 06:09:23.830 ,2,0,0.,12.0,0.,12.0,0.,12.0,0.,12.0
1979-07-29 06:09:35.830 ,1,1,0.,12.0,0.,12.0,0.,12.0,0.,12.0
1979-07-29 06:09:47.830 ,1,1,0.,12.0,0.,12.0,0.,12.0,0.,12.0
1979-07-29 06:09:59.830 ,1,0,1.,12.0,0.,12.0,0.,12.0,0.,12.0
1979-07-29 06:10:11.830 ,1,0,0.,12.0,0.,12.0,0.,12.0,0.,12.0
1979-07-29 06:10:23.830 ,0,1,0.,12.0,0.,12.0,0.,12.0,0.,12.0
1979-07-29 06:10:35.830 ,0,1,0.,12.0,0.,12.0,0.,12.0,0.,12.0
1979-07-29 06:10:47.830 ,0,0,0.,12.0,0.,12.0,0.,12.0,0.,12.0
1979-07-29 06:10:59.830 ,0,0,0.,12.0,0.,12.0,0.,12.0,0.,12.0
1979-07-29 06:11:11.830 ,0,1,0.,12.0,0.,12.0,0.,12.0,0.,12.0
1979-07-29 06:11:23.830 ,0,1,0.,12.0,0.,12.0,0.,12.0,0.,12.0
1979-07-29 06:11:35.830 ,0,0,0.,12.0,0.,12.0,0.,12.0,0.,12.0
1979-07-29 06:11:47.830 ,0,0,0.,12.0,0.,12.0,0.,12.0,0.,12.0
1979-07-29 06:11:59.830 ,1,1,0.,12.0,0.,12.0,0.,12.0,0.,12.0
1979-07-29 06:12:11.830 ,1,1,0.,12.0,0.,12.0,0.,12.0,0.,12.0
1979-07-29 06:12:23.830 ,1,0,0.,12.0,0.,12.0,0.,12.0,0.,12.0
1979-07-29 06:12:35.830 ,1,0,0.,12.0,0.,12.0,0.,12.0,0.,12.0
1979-07-29 06:12:47.830 ,2,1,0.,12.0,0.,12.0,0.,12.0,0.,12.0
1979-07-29 06:12:59.830 ,2,1,0.,12.0,0.,12.0,0.,12.0,0.,12.0
1979-07-29 06:13:11.830 ,2,0,0.,12.0,0.,12.0,0.,12.0,0.,12.0
1979-07-29 06:13:23.830 ,2,0,0.,12.0,0.,12.0,0.,12.0,0.,12.0
1979-07-29 06:13:35.830 ,3,1,0.,12.0,0.,12.0,0.,12.0,0.,12.0
1979-07-29 06:13:47.830 ,3,1,0.,12.0,0.,12.0,0.,12.0,0.,12.0
1979-07-29 06:13:59.830 ,3,0,0.,12.0,0.,12.0,0.,12.0,0.,12.0
1979-07-29 06:14:11.830 ,3,0,0.,12.0,0.,12.0,0.,12.0,0.,12.0
1979-07-29 06:14:23.830 ,4,1,0.,12.0,0.,12.0,0.,12.0,0.,12.0
1979-07-29 06:14:35.830 ,4,1,0.,12.0,0.,12.0,0.,12.0,0.,12.0
1979-07-29 06:14:47.830 ,4,0,0.,12.0,0.,12.0,0.,12.0,0.,12.0
1979-07-29 06:14:59.830 ,4,0,0.,12.0,0.,12.0,0.,12.0,0.,12.0
1979-07-29 06:15:11.830 ,5,1,0.,12.0,0.,12.0,0.,12.0,0.,12.0
1979-07-29 06:15:23.830 ,5,1,0.,12.0,0.,12.0,0.,12.0,0.,12.0
1979-07-29 06:15:35.830 ,5,0,0.,12.0,0.,12.0,0.,12.0,0.,12.0
1979-07-29 06:15:47.830 ,5,0,0.,12.0,0.,12.0,0.,12.0,0.,12.0
1979-07-29 06:15:59.830 ,6,1,0.,12.0,0.,12.0,0.,12.0,0.,12.0
1979-07-29 06:16:11.830 ,6,1,0.,12.0,0.,12.0,0.,12.0,0.,12.0
1979-07-29 06:16:23.830 ,6,0,0.,12.0,0.,12.0,0.,12.0,0.,12.0
1979-07-29 06:16:35.830 ,6,0,0.,12.0,0.,12.0,0.,12.0,0.,12.0
1979-07-29 06:16:47.830 ,7,1,0.,12.0,0.,12.0,0.,12.0,0.,12.0
1979-07-29 06:16:59.830 ,7,1,0.,12.0,0.,12.0,0.,12.0,0.,12.0
1979-07-29 06:17:11.830 ,7,0,0.,12.0,0.,12.0,0.,12.0,0.,12.0
1979-07-29 06:17:23.830 ,7,0,0.,12.0,0.,12.0,0.,12.0,0.,12.0
1979-07-29 06:17:35.830 ,7,1,0.,12.0,0.,12.0,0.,12.0,0.,12.0
1979-07-29 06:17:47.830 ,7,1,0.,12.0,0.,12.0,0.,12.0,0.,12.0
1979-07-29 06:17:59.830 ,7,0,0.,12.0,0.,12.0,0.,12.0,0.,12.0
1979-07-29 06:18:11.830 ,7,0,0.,12.0,0.,12.0,0.,12.0,0.,12.0
1979-07-29 06:18:23.830 ,6,1,0.,12.0,0.,12.0,0.,12.0,0.,12.0
1979-07-29 06:18:35.830 ,6,1,0.,12.0,0.,12.0,0.,12.0,0.,12.0
1979-07-29 06:18:47.830 ,6,0,0.,12.0,0.,12.0,0.,12.0,0.,12.0
1979-07-29 06:18:59.830 ,6,0,0.,12.0,0.,12.0,0.,12.0,0.,12.0
1979-07-29 06:19:11.830 ,5,1,0.,12.0,0.,12.0,0.,12.0,0.,12.0
1979-07-29 06:19:23.830 ,5,1,0.,12.0,0.,12.0,0.,12.0,0.,12.0
1979-07-29 06:19:35.830 ,5,0,0.,12.0,0.,12.0,0.,12.0,0.,12.0
1979-07-29 06:19:47.830 ,5,0,0.,12.0,0.,12.0,0.,12.0,1.,12.0
1979-07-29 06:19:59.830 ,4,1,0.,12.0,0.,12.0,0.,12.0,0.,12.0
1979-07-29 06:20:11.830 ,4,1,0.,12.0,0.,12.0,0.,12.0,0.,12.0
1979-07-29 06:20:23.830 ,4,0,0.,12.0,0.,12.0,0.,12.0,0.,12.0
1979-07-29 06:20:35.830 ,4,0,0.,12.0,0.,12.0,0.,12.0,0.,12.0
1979-07-29 06:20:47.830 ,3,1,0.,12.0,0.,12.0,0.,12.0,0.,12.0
1979-07-29 06:20:59.830 ,3,1,0.,12.0,0.,12.0,0.,12.0,0.,12.0
1979-07-29 06:21:11.830 ,3,0,0.,12.0,0.,12.0,0.,12.0,0.,12.0
1979-07-29 06:21:23.830 ,3,0,0.,12.0,0.,12.0,0.,12.0,0.,12.0
1979-07-29 06:21:35.830 ,2,1,0.,12.0,0.,12.0,0.,12.0,0.,12.0
1979-07-29 06:21:47.830 ,2,1,0.,12.0,0.,12.0,0.,12.0,0.,12.0
1979-07-29 06:21:59.830 ,2,0,0.,12.0,0.,12.0,0.,12.0,0.,12.0
1979-07-29 06:22:11.830 ,2,0,0.,12.0,0.,12.0,0.,12.0,0.,12.0
1979-07-29 06:22:23.830 ,1,1,0.,12.0,0.,12.0,0.,12.0,0.,12.0
1979-07-29 06:22:35.830 ,1,1,0.,12.0,0.,12.0,0.,12.0,0.,12.0
1979-07-29 06:22:47.830 ,1,0,0.,12.0,0.,12.0,0.,12.0,0.,12.0
1979-07-29 06:22:59.830 ,1,0,0.,12.0,0.,12.0,0.,12.0,0.,12.0
1979-07-29 06:23:11.830 ,0,1,0.,12.0,0.,12.0,0.,12.0,0.,12.0
1979-07-29 06:23:23.830 ,0,1,0.,12.0,0.,12.0,0.,12.0,0.,12.0
1979-07-29 06:23:35.830 ,0,0,0.,12.0,0.,12.0,0.,12.0,0.,12.0
1979-07-29 06:23:47.830 ,0,0,0.,12.0,0.,12.0,0.,12.0,0.,12.0
1979-07-29 06:23:59.830 ,0,1,0.,12.0,0.,12.0,0.,12.0,0.,12.0
1979-07-29 06:24:11.830 ,0,1,0.,12.0,0.,12.0,0.,12.0,0.,12.0
1979-07-29 06:24:23.830 ,0,0,0.,12.0,0.,12.0,0.,12.0,0.,12.0
1979-07-29 06:24:35.830 ,0,0,0.,12.0,0.,12.0,0.,12.0,0.,12.0
1979-07-29 06:24:47.830 ,1,1,0.,12.0,0.,12.0,0.,12.0,0.,12.0
1979-07-29 06:24:59.830 ,1,1,0.,12.0,0.,12.0,0.,12.0,0.,12.0
1979-07-29 06:25:11.830 ,1,0,0.,12.0,0.,12.0,0.,12.0,0.,12.0
1979-07-29 06:25:23.830 ,1,0,0.,12.0,0.,12.0,0.,12.0,0.,12.0
1979-07-29 06:25:35.830 ,2,1,0.,12.0,0.,12.0,0.,12.0,0.,12.0
1979-07-29 06:25:47.830 ,2,1,0.,12.0,0.,12.0,0.,12.0,0.,12.0
1979-07-29 06:25:59.830 ,2,0,0.,12.0,0.,12.0,0.,12.0,0.,12.0
1979-07-29 06:26:11.830 ,2,0,0.,12.0,0.,12.0,0.,12.0,0.,12.0
1979-07-29 06:26:23.830 ,3,1,0.,12.0,0.,12.0,0.,12.0,0.,12.0
1979-07-29 06:26:35.830 ,3,1,0.,12.0,0.,12.0,0.,12.0,0.,12.0
1979-07-29 06:26:47.830 ,3,0,0.,12.0,0.,12.0,0.,12.0,0.,12.0
1979-07-29 06:26:59.830 ,3,0,0.,12.0,0.,12.0,0.,12.0,0.,12.0
1979-07-29 06:27:11.830 ,4,1,0.,12.0,0.,12.0,0.,12.0,0.,12.0
1979-07-29 06:27:23.830 ,4,1,0.,12.0,0.,12.0,1.,12.0,0.,12.0
1979-07-29 06:27:35.830 ,4,0,0.,12.0,0.,12.0,0.,12.0,0.,12.0
1979-07-29 06:27:47.830 ,4,0,0.,12.0,0.,12.0,0.,12.0,0.,12.0
1979-07-29 06:27:59.830 ,5,1,0.,12.0,0.,12.0,0.,12.0,0.,12.0
1979-07-29 06:28:11.830 ,5,1,0.,12.0,0.,12.0,0.,12.0,0.,12.0
1979-07-29 06:28:23.830 ,5,0,0.,12.0,0.,12.0,0.,12.0,0.,12.0
1979-07-29 06:28:35.830 ,5,0,0.,12.0,0.,12.0,0.,12.0,0.,12.0
1979-07-29 06:28:47.830 ,6,1,0.,12.0,0.,12.0,0.,12.0,0.,12.0
1979-07-29 06:28:59.830 ,6,1,0.,12.0,0.,12.0,0.,12.0,0.,12.0
1979-07-29 06:29:11.830 ,6,0,0.,12.0,0.,12.0,0.,12.0,0.,12.0
1979-07-29 06:29:23.830 ,6,0,0.,12.0,0.,12.0,0.,12.0,0.,12.0
1979-07-29 06:29:35.830 ,7,1,0.,12.0,0.,12.0,0.,12.0,0.,12.0
1979-07-29 06:29:47.830 ,7,1,0.,12.0,0.,12.0,0.,12.0,0.,12.0
1979-07-29 06:29:59.830 ,7,0,0.,12.0,0.,12.0,0.,12.0,0.,12.0
1979-07-29 06:30:11.830 ,7,0,0.,12.0,0.,12.0,0.,12.0,0.,12.0
1979-07-29 06:30:23.830 ,7,1,0.,12.0,0.,12.0,0.,12.0,0.,12.0
1979-07-29 06:30:35.830 ,7,1,0.,12.0,0.,12.0,0.,12.0,0.,12.0
1979-07-29 06:30:47.830 ,7,0,0.,12.0,0.,12.0,0.,12.0,0.,12.0
1979-07-29 06:30:59.830 ,7,0,0.,12.0,0.,12.0,0.,12.0,0.,12.0
1979-07-29 06:31:11.830 ,6,1,0.,12.0,0.,12.0,0.,12.0,0.,12.0
1979-07-29 06:31:23.830 ,6,1,0.,12.0,0.,12.0,0.,12.0,0.,12.0
1979-07-29 06:31:35.830 ,6,0,0.,12.0,0.,12.0,0.,12.0,0.,12.0
1979-07-29 06:31:47.830 ,6,0,0.,12.0,0.,12.0,0.,12.0,0.,12.0
1979-07-29 06:31:59.830 ,5,1,0.,12.0,0.,12.0,0.,12.0,0.,12.0
1979-07-29 06:32:11.830 ,5,1,0.,12.0,0.,12.0,0.,12.0,0.,12.0
1979-07-29 06:32:23.830 ,5,0,0.,12.0,0.,12.0,0.,12.0,0.,12.0
1979-07-29 06:32:35.830 ,5,0,0.,12.0,0.,12.0,0.,12.0,0.,12.0
1979-07-29 06:32:47.830 ,4,1,0.,12.0,0.,12.0,0.,12.0,0.,12.0
1979-07-29 06:32:59.830 ,4,1,0.,12.0,0.,12.0,0.,12.0,0.,12.0
1979-07-29 06:33:11.830 ,4,0,0.,12.0,0.,12.0,0.,12.0,0.,12.0
1979-07-29 06:33:23.830 ,4,0,0.,12.0,0.,12.0,0.,12.0,0.,12.0
1979-07-29 06:33:35.830 ,3,1,0.,12.0,0.,12.0,0.,12.0,0.,12.0
1979-07-29 06:33:47.830 ,3,1,0.,12.0,0.,12.0,0.,12.0,0.,12.0
1979-07-29 06:33:59.830 ,3,0,0.,12.0,0.,12.0,0.,12.0,0.,12.0
1979-07-29 06:34:11.830 ,3,0,0.,12.0,0.,12.0,0.,12.0,0.,12.0
1979-07-29 06:34:23.830 ,2,1,0.,12.0,0.,12.0,0.,12.0,1.,12.0
1979-07-29 06:34:35.830 ,2,1,0.,12.0,0.,12.0,0.,12.0,0.,12.0
1979-07-29 06:34:47.830 ,2,0,0.,12.0,0.,12.0,0.,12.0,0.,12.0
1979-07-29 06:34:59.830 ,2,0,0.,12.0,0.,12.0,0.,12.0,0.,12.0
1979-07-29 06:35:11.830 ,1,1,0.,12.0,0.,12.0,0.,12.0,0.,12.0
1979-07-29 06:35:23.830 ,1,1,0.,12.0,0.,12.0,0.,12.0,0.,12.0
1979-07-29 06:35:35.830 ,1,0,0.,12.0,0.,12.0,0.,12.0,0.,12.0
1979-07-29 06:35:47.830 ,1,0,0.,12.0,0.,12.0,0.,12.0,0.,12.0
1979-07-29 06:35:59.830 ,0,1,0.,12.0,0.,12.0,0.,12.0,0.,12.0
1979-07-29 06:36:11.830 ,0,1,0.,12.0,0.,12.0,0.,12.0,0.,12.0
1979-07-29 06:36:23.830 ,0,0,0.,12.0,0.,12.0,0.,12.0,0.,12.0
1979-07-29 06:36:35.830 ,0,0,0.,12.0,0.,12.0,0.,12.0,0.,12.0
1979-07-29 06:36:47.830 ,0,1,0.,12.0,0.,12.0,0.,12.0,0.,12.0
1979-07-29 06:36:59.830 ,0,1,0.,12.0,0.,12.0,0.,12.0,0.,12.0
1979-07-29 06:37:11.830 ,0,0,0.,12.0,0.,12.0,0.,12.0,0.,12.0
1979-07-29 06:37:23.830 ,0,0,0.,12.0,0.,12.0,0.,12.0,0.,12.0
1979-07-29 06:37:35.830 ,1,1,0.,12.0,0.,12.0,0.,12.0,0.,12.0
1979-07-29 06:37:47.830 ,1,1,0.,12.0,0.,12.0,0.,12.0,0.,12.0
1979-07-29 06:37:59.830 ,1,0,0.,12.0,0.,12.0,0.,12.0,0.,12.0
1979-07-29 06:38:11.830 ,1,0,0.,12.0,0.,12.0,0.,12.0,0.,12.0
1979-07-29 06:38:23.830 ,2,1,0.,12.0,0.,12.0,0.,12.0,0.,12.0
1979-07-29 06:38:35.830 ,2,1,0.,12.0,0.,12.0,0.,12.0,0.,12.0
1979-07-29 06:38:47.830 ,2,0,0.,12.0,0.,12.0,0.,12.0,0.,12.0
1979-07-29 06:38:59.830 ,2,0,0.,12.0,0.,12.0,0.,12.0,0.,12.0
1979-07-29 06:39:11.830 ,0,0,0.,12.0,0.,12.0,0.,12.0,0.,12.0
1979-07-29 06:39:23.830 ,0,0,,0,,0,,0,,0
1979-07-29 06:39:35.830 ,0,0,,0,,0,,0,,0
1979-07-29 06:39:47.830 ,0,0,,0,,0,,0,,0
1979-07-29 06:39:35.830 ,3,0,0.,12.0,0.,12.0,0.,12.0,0.,12.0
1979-07-29 06:39:47.830 ,3,0,0.,12.0,0.,12.0,0.,12.0,0.,12.0
1979-07-29 06:39:59.830 ,4,1,0.,12.0,0.,12.0,0.,12.0,0.,12.0
1979-07-29 06:40:11.830 ,4,1,0.,12.0,0.,12.0,0.,12.0,0.,12.0
1979-07-29 06:40:23.830 ,4,0,0.,12.0,0.,12.0,0.,12.0,0.,12.0
1979-07-29 06:40:35.830 ,4,0,0.,12.0,0.,12.0,0.,12.0,0.,12.0
1979-07-29 06:40:47.830 ,5,1,0.,12.0,0.,12.0,0.,12.0,0.,12.0
1979-07-29 06:40:59.830 ,5,1,0.,12.0,0.,12.0,0.,12.0,0.,12.0
1979-07-29 06:41:11.830 ,5,0,0.,12.0,0.,12.0,0.,12.0,0.,12.0
1979-07-29 06:41:23.830 ,5,0,0.,12.0,0.,12.0,0.,12.0,0.,12.0
1979-07-29 06:41:35.830 ,6,1,0.,12.0,0.,12.0,0.,12.0,0.,12.0
1979-07-29 06:41:47.830 ,6,1,0.,12.0,0.,12.0,0.,12.0,0.,12.0
1979-07-29 06:41:59.830 ,6,0,0.,12.0,0.,12.0,0.,12.0,0.,12.0
1979-07-29 06:42:11.830 ,6,0,0.,12.0,0.,12.0,0.,12.0,0.,12.0
1979-07-29 06:42:23.830 ,7,0,0.,12.0,0.,12.0,0.,12.0,0.,12.0
1979-07-29 06:42:35.830 ,7,0,0.,12.0,0.,12.0,0.,12.0,0.,12.0
1979-07-29 06:42:47.830 ,7,0,0.,12.0,0.,12.0,0.,12.0,0.,12.0
1979-07-29 06:42:59.830 ,7,0,0.,12.0,0.,12.0,0.,12.0,0.,12.0
1979-07-29 06:43:11.830 ,4,1,0.,12.0,0.,12.0,0.,12.0,0.,12.0
1979-07-29 06:43:23.830 ,4,1,0.,12.0,0.,12.0,0.,12.0,0.,12.0
1979-07-29 06:43:35.830 ,0,1,0.,12.0,0.,12.0,0.,12.0,0.,12.0
1979-07-29 06:43:47.830 ,0,1,0.,12.0,0.,12.0,0.,12.0,0.,12.0
1979-07-29 06:44:47.830 ,0,0,0.,12.0,0.,12.0,0.,12.0,0.,12.0
1979-07-29 06:44:59.830 ,0,0,0.,12.0,0.,12.0,0.,12.0,0.,12.0
1979-07-29 06:45:11.830 ,0,1,0.,12.0,0.,12.0,0.,12.0,0.,12.0
1979-07-29 06:45:23.830 ,0,1,0.,12.0,0.,12.0,0.,12.0,0.,12.0
1979-07-29 06:45:35.830 ,3,1,0.,12.0,0.,12.0,0.,12.0,0.,12.0
1979-07-29 06:45:47.830 ,3,1,0.,12.0,0.,12.0,0.,12.0,0.,12.0
1979-07-29 06:45:59.830 ,7,1,0.,12.0,0.,12.0,0.,12.0,0.,12.0
1979-07-29 06:46:11.830 ,7,1,0.,12.0,0.,12.0,0.,12.0,0.,12.0
1979-07-29 06:46:23.830 ,4,1,0.,12.0,0.,12.0,0.,12.0,0.,12.0
1979-07-29 06:46:35.830 ,4,1,0.,12.0,0.,12.0,0.,12.0,0.,12.0
1979-07-29 06:46:47.830 ,0,1,0.,12.0,0.,12.0,0.,12.0,0.,12.0
1979-07-29 06:46:59.830 ,0,1,0.,12.0,0.,12.0,0.,12.0,0.,12.0
1979-07-29 06:47:11.830 ,3,1,0.,12.0,0.,12.0,0.,12.0,0.,12.0
1979-07-29 06:47:23.830 ,3,1,0.,12.0,0.,12.0,0.,12.0,0.,12.0
1979-07-29 06:47:35.830 ,7,1,0.,12.0,0.,12.0,0.,12.0,0.,12.0
1979-07-29 06:47:47.830 ,7,1,0.,12.0,0.,12.0,0.,12.0,0.,12.0
1979-07-29 06:47:59.830 ,4,1,0.,12.0,0.,12.0,0.,12.0,0.,12.0
1979-07-29 06:48:11.830 ,4,1,0.,12.0,0.,12.0,0.,12.0,0.,12.0
1979-07-29 06:48:23.830 ,0,1,0.,12.0,0.,12.0,0.,12.0,0.,12.0
1979-07-29 06:48:35.830 ,0,1,0.,12.0,0.,12.0,0.,12.0,0.,12.0
1979-07-29 06:48:47.830 ,3,1,0.,12.0,0.,12.0,0.,12.0,0.,12.0
1979-07-29 06:48:59.830 ,3,1,0.,12.0,0.,12.0,0.,12.0,0.,12.0
1979-07-29 06:49:11.830 ,7,1,0.,12.0,0.,12.0,0.,12.0,0.,12.0
1979-07-29 06:49:23.830 ,7,1,0.,12.0,0.,12.0,0.,12.0,0.,12.0
1979-07-29 06:49:35.830 ,4,1,0.,12.0,0.,12.0,0.,12.0,0.,12.0
1979-07-29 06:49:47.830 ,4,1,0.,12.0,0.,12.0,0.,12.0,0.,12.0
1979-07-29 06:49:59.830 ,0,1,0.,12.0,0.,12.0,0.,12.0,0.,12.0
1979-07-29 06:50:11.830 ,0,1,0.,12.0,0.,12.0,0.,12.0,0.,12.0
1979-07-29 06:50:23.830 ,3,1,0.,12.0,0.,12.0,0.,12.0,0.,12.0
1979-07-29 06:50:35.830 ,3,1,0.,12.0,0.,12.0,0.,12.0,0.,12.0
1979-07-29 06:50:47.830 ,7,1,0.,12.0,0.,12.0,0.,12.0,0.,12.0
1979-07-29 06:50:59.830 ,7,1,0.,12.0,0.,12.0,0.,12.0,0.,12.0
1979-07-29 06:51:11.830 ,4,1,0.,12.0,0.,12.0,0.,12.0,0.,12.0
1979-07-29 06:51:23.830 ,4,1,0.,12.0,0.,12.0,0.,12.0,0.,12.0
1979-07-29 06:51:35.830 ,0,1,0.,12.0,0.,12.0,0.,12.0,0.,12.0
1979-07-29 06:51:47.830 ,0,1,0.,12.0,0.,12.0,0.,12.0,0.,12.0
1979-07-29 06:51:59.830 ,3,1,0.,12.0,0.,12.0,0.,12.0,0.,12.0
1979-07-29 06:52:11.830 ,3,1,0.,12.0,0.,12.0,0.,12.0,0.,12.0
1979-07-29 06:52:23.830 ,7,1,0.,12.0,0.,12.0,0.,12.0,0.,12.0
1979-07-29 06:52:35.830 ,7,1,0.,12.0,0.,12.0,0.,12.0,0.,12.0
1979-07-29 06:52:47.830 ,4,1,0.,12.0,0.,12.0,0.,12.0,0.,12.0
1979-07-29 06:52:59.830 ,4,1,0.,12.0,0.,12.0,0.,12.0,0.,12.0
1979-07-29 06:53:11.830 ,0,1,0.,12.0,0.,12.0,0.,12.0,0.,12.0
1979-07-29 06:53:23.830 ,0,1,0.,12.0,0.,12.0,0.,12.0,0.,12.0
1979-07-29 06:53:35.830 ,0,0,0.,12.0,0.,12.0,0.,12.0,0.,12.0
1979-07-29 06:53:47.830 ,0,0,0.,12.0,0.,12.0,0.,12.0,0.,12.0
1979-07-29 06:53:59.830 ,0,0,0.,12.0,0.,12.0,0.,12.0,0.,12.0
1979-07-29 06:54:11.830 ,0,0,0.,12.0,0.,12.0,0.,12.0,0.,12.0
1979-07-29 06:54:23.830 ,5,1,0.,12.0,0.,12.0,0.,12.0,0.,12.0
1979-07-29 06:54:35.830 ,5,1,0.,12.0,0.,12.0,0.,12.0,0.,12.0
1979-07-29 06:54:47.830 ,5,0,0.,12.0,0.,12.0,0.,12.0,0.,12.0
1979-07-29 06:54:59.830 ,5,0,0.,12.0,0.,12.0,0.,12.0,0.,12.0
1979-07-29 06:55:11.830 ,4,1,0.,12.0,0.,12.0,0.,12.0,0.,12.0
1979-07-29 06:55:23.830 ,4,1,0.,12.0,0.,12.0,0.,12.0,0.,12.0
1979-07-29 06:55:35.830 ,4,0,0.,12.0,0.,12.0,0.,12.0,0.,12.0
1979-07-29 06:55:47.830 ,4,0,0.,12.0,0.,12.0,0.,12.0,0.,12.0
1979-07-29 06:55:59.830 ,3,1,0.,12.0,0.,12.0,0.,12.0,0.,12.0
1979-07-29 06:56:11.830 ,3,1,0.,12.0,0.,12.0,0.,12.0,0.,12.0
1979-07-29 06:56:23.830 ,3,0,0.,12.0,0.,12.0,0.,12.0,0.,12.0
1979-07-29 06:56:35.830 ,3,0,0.,12.0,0.,12.0,0.,12.0,0.,12.0
1979-07-29 06:58:23.830 ,0,0,0.,12.0,0.,12.0,0.,12.0,0.,12.0
1979-07-29 06:58:35.830 ,0,0,0.,12.0,0.,12.0,0.,12.0,0.,12.0
1979-07-29 06:58:47.830 ,0,0,0.,12.0,0.,12.0,0.,12.0,0.,12.0
1979-07-29 06:58:59.830 ,0,0,0.,12.0,0.,12.0,0.,12.0,0.,12.0
1979-07-29 06:59:11.830 ,0,1,0.,12.0,0.,12.0,0.,12.0,0.,12.0
1979-07-29 06:59:23.830 ,0,1,0.,12.0,0.,12.0,0.,12.0,0.,12.0
1979-07-29 06:59:35.830 ,0,0,0.,12.0,0.,12.0,0.,12.0,0.,12.0
1979-07-29 06:59:47.830 ,0,0,0.,12.0,0.,12.0,0.,12.0,0.,12.0
1979-07-29 06:59:59.830 ,1,1,0.,12.0,0.,12.0,0.,12.0,0.,12.0
1979-07-29 07:00:11.830 ,1,1,0.,12.0,0.,12.0,0.,12.0,0.,12.0
1979-07-29 07:00:23.830 ,1,0,0.,12.0,0.,12.0,0.,12.0,0.,12.0
1979-07-29 07:00:35.830 ,1,0,0.,12.0,0.,12.0,0.,12.0,0.,12.0
1979-07-29 07:00:47.830 ,2,1,0.,12.0,0.,12.0,0.,12.0,0.,12.0
1979-07-29 07:00:59.830 ,2,1,0.,12.0,0.,12.0,0.,12.0,0.,12.0
1979-07-29 07:01:11.830 ,2,0,0.,12.0,0.,12.0,0.,12.0,0.,12.0
1979-07-29 07:01:23.830 ,2,0,0.,12.0,0.,12.0,0.,12.0,0.,12.0
1979-07-29 07:01:35.830 ,3,1,0.,12.0,0.,12.0,0.,12.0,0.,12.0
1979-07-29 07:01:47.830 ,3,1,0.,12.0,0.,12.0,0.,12.0,0.,12.0
1979-07-29 07:01:59.830 ,3,0,0.,12.0,0.,12.0,0.,12.0,0.,12.0
1979-07-29 07:02:11.830 ,3,0,0.,12.0,0.,12.0,0.,12.0,0.,12.0
1979-07-29 07:02:23.830 ,4,1,0.,12.0,0.,12.0,0.,12.0,0.,12.0
1979-07-29 07:02:35.830 ,4,1,0.,12.0,0.,12.0,0.,12.0,0.,12.0
1979-07-29 07:02:47.830 ,4,0,0.,12.0,0.,12.0,0.,12.0,0.,12.0
1979-07-29 07:02:59.830 ,4,0,0.,12.0,0.,12.0,0.,12.0,0.,12.0
1979-07-29 07:03:11.830 ,5,1,0.,12.0,0.,12.0,0.,12.0,0.,12.0
1979-07-29 07:03:23.830 ,5,1,0.,12.0,0.,12.0,0.,12.0,0.,12.0
1979-07-29 07:03:35.830 ,5,0,0.,12.0,0.,12.0,0.,12.0,0.,12.0
1979-07-29 07:03:47.830 ,5,0,0.,12.0,0.,12.0,0.,12.0,0.,12.0
1979-07-29 07:03:59.830 ,6,1,0.,12.0,0.,12.0,0.,12.0,0.,12.0
1979-07-29 07:04:11.830 ,6,1,0.,12.0,0.,12.0,0.,12.0,0.,12.0
1979-07-29 07:04:23.830 ,6,0,0.,12.0,0.,12.0,0.,12.0,0.,12.0
1979-07-29 07:04:35.830 ,6,0,0.,12.0,0.,12.0,0.,12.0,0.,12.0
1979-07-29 07:04:47.830 ,7,1,0.,12.0,0.,12.0,0.,12.0,0.,12.0
1979-07-29 07:04:59.830 ,7,1,0.,12.0,0.,12.0,0.,12.0,0.,12.0
1979-07-29 07:05:11.830 ,7,0,0.,12.0,0.,12.0,0.,12.0,0.,12.0
1979-07-29 07:05:23.830 ,7,0,0.,12.0,0.,12.0,0.,12.0,0.,12.0
1979-07-29 07:05:35.830 ,7,1,0.,12.0,0.,12.0,0.,12.0,0.,12.0
1979-07-29 07:05:47.830 ,7,1,0.,12.0,0.,12.0,0.,12.0,0.,12.0
1979-07-29 07:05:59.830 ,7,0,0.,12.0,0.,12.0,0.,12.0,1.,12.0
1979-07-29 07:06:11.830 ,7,0,0.,12.0,0.,12.0,0.,12.0,0.,12.0
1979-07-29 07:06:23.830 ,6,1,0.,12.0,0.,12.0,0.,12.0,0.,12.0
1979-07-29 07:06:35.830 ,6,1,0.,12.0,0.,12.0,0.,12.0,0.,12.0
1979-07-29 07:06:47.830 ,6,0,0.,12.0,0.,12.0,0.,12.0,0.,12.0
1979-07-29 07:06:59.830 ,6,0,0.,12.0,0.,12.0,0.,12.0,0.,12.0
1979-07-29 07:07:11.830 ,5,1,0.,12.0,0.,12.0,0.,12.0,0.,12.0
1979-07-29 07:07:23.830 ,5,1,0.,12.0,0.,12.0,0.,12.0,0.,12.0
1979-07-29 07:07:35.830 ,5,0,0.,12.0,0.,12.0,0.,12.0,0.,12.0
1979-07-29 07:07:47.830 ,5,0,0.,12.0,0.,12.0,0.,12.0,0.,12.0
1979-07-29 07:07:59.830 ,4,1,0.,12.0,0.,12.0,0.,12.0,0.,12.0
1979-07-29 07:08:11.830 ,4,1,0.,12.0,0.,12.0,0.,12.0,0.,12.0
1979-07-29 07:08:23.830 ,4,0,0.,12.0,0.,12.0,0.,12.0,0.,12.0
1979-07-29 07:08:35.830 ,4,0,0.,12.0,0.,12.0,0.,12.0,0.,12.0
1979-07-29 07:08:47.830 ,3,1,0.,12.0,0.,12.0,0.,12.0,0.,12.0
1979-07-29 07:08:59.830 ,3,1,0.,12.0,0.,12.0,0.,12.0,0.,12.0
1979-07-29 07:09:11.830 ,3,0,0.,12.0,0.,12.0,0.,12.0,0.,12.0
1979-07-29 07:09:23.830 ,3,0,0.,12.0,0.,12.0,0.,12.0,0.,12.0
1979-07-29 07:09:35.830 ,2,1,0.,12.0,0.,12.0,0.,12.0,0.,12.0
1979-07-29 07:09:47.830 ,2,1,0.,12.0,0.,12.0,0.,12.0,0.,12.0
1979-07-29 07:09:59.830 ,2,0,0.,12.0,0.,12.0,0.,12.0,0.,12.0
1979-07-29 07:10:11.830 ,2,0,0.,12.0,0.,12.0,0.,12.0,0.,12.0
1979-07-29 07:10:23.830 ,1,1,0.,12.0,0.,12.0,0.,12.0,0.,12.0
1979-07-29 07:10:35.830 ,1,1,0.,12.0,0.,12.0,0.,12.0,0.,12.0
1979-07-29 07:10:47.830 ,1,0,0.,12.0,0.,12.0,0.,12.0,0.,12.0
1979-07-29 07:10:59.830 ,1,0,0.,12.0,0.,12.0,0.,12.0,0.,12.0
1979-07-29 07:11:11.830 ,0,1,0.,12.0,0.,12.0,0.,12.0,0.,12.0
1979-07-29 07:11:23.830 ,0,1,0.,12.0,0.,12.0,0.,12.0,0.,12.0
1979-07-29 07:11:35.830 ,0,0,0.,12.0,0.,12.0,0.,12.0,0.,12.0
1979-07-29 07:11:47.830 ,0,0,0.,12.0,0.,12.0,0.,12.0,0.,12.0
1979-07-29 07:11:59.830 ,0,1,0.,12.0,0.,12.0,0.,12.0,0.,12.0
1979-07-29 07:12:11.830 ,0,1,0.,12.0,0.,12.0,0.,12.0,0.,12.0
1979-07-29 07:12:23.830 ,0,0,0.,12.0,0.,12.0,0.,12.0,0.,12.0
1979-07-29 07:12:35.830 ,0,0,0.,12.0,0.,12.0,0.,12.0,0.,12.0
1979-07-29 07:12:47.830 ,1,1,0.,12.0,0.,12.0,0.,12.0,0.,12.0
1979-07-29 07:12:59.830 ,1,1,0.,12.0,0.,12.0,0.,12.0,0.,12.0
1979-07-29 07:13:11.830 ,1,0,0.,12.0,0.,12.0,0.,12.0,0.,12.0
1979-07-29 07:13:23.830 ,1,0,0.,12.0,0.,12.0,0.,12.0,0.,12.0
1979-07-29 07:13:35.830 ,2,1,0.,12.0,0.,12.0,0.,12.0,0.,12.0
1979-07-29 07:13:47.830 ,2,1,0.,12.0,0.,12.0,0.,12.0,0.,12.0
1979-07-29 07:13:59.830 ,2,0,0.,12.0,0.,12.0,0.,12.0,0.,12.0
1979-07-29 07:14:11.830 ,2,0,0.,12.0,0.,12.0,0.,12.0,0.,12.0
1979-07-29 07:14:23.830 ,3,1,0.,12.0,0.,12.0,0.,12.0,0.,12.0
1979-07-29 07:14:35.830 ,3,1,0.,12.0,0.,12.0,0.,12.0,0.,12.0
1979-07-29 07:14:47.830 ,3,0,0.,12.0,0.,12.0,0.,12.0,0.,12.0
1979-07-29 07:14:59.830 ,3,0,0.,12.0,0.,12.0,0.,12.0,0.,12.0
1979-07-29 07:15:11.830 ,4,1,0.,12.0,0.,12.0,0.,12.0,0.,12.0
1979-07-29 07:15:23.830 ,4,1,0.,12.0,0.,12.0,0.,12.0,0.,12.0
1979-07-29 07:15:35.830 ,4,0,0.,12.0,0.,12.0,0.,12.0,0.,12.0
1979-07-29 07:15:47.830 ,4,0,0.,12.0,0.,12.0,0.,12.0,0.,12.0
1979-07-29 07:15:59.830 ,5,1,0.,12.0,0.,12.0,0.,12.0,0.,12.0
1979-07-29 07:16:11.830 ,5,1,0.,12.0,0.,12.0,0.,12.0,0.,12.0
1979-07-29 07:16:23.830 ,5,0,0.,12.0,0.,12.0,0.,12.0,0.,12.0
1979-07-29 07:16:35.830 ,5,0,0.,12.0,0.,12.0,0.,12.0,0.,12.0
1979-07-29 07:16:47.830 ,6,1,0.,12.0,0.,12.0,0.,12.0,0.,12.0
1979-07-29 07:16:59.830 ,6,1,0.,12.0,0.,12.0,0.,12.0,0.,12.0
1979-07-29 07:17:11.830 ,6,0,0.,12.0,0.,12.0,0.,12.0,0.,12.0
1979-07-29 07:17:23.830 ,6,0,0.,12.0,0.,12.0,0.,12.0,0.,12.0
1979-07-29 07:17:35.830 ,7,1,0.,12.0,0.,12.0,0.,12.0,1.,12.0
1979-07-29 07:17:47.830 ,7,1,0.,12.0,0.,12.0,0.,12.0,0.,12.0
1979-07-29 07:17:59.830 ,7,0,0.,12.0,0.,12.0,0.,12.0,0.,12.0
1979-07-29 07:18:11.830 ,7,0,0.,12.0,0.,12.0,0.,12.0,0.,12.0
1979-07-29 07:18:23.830 ,7,1,0.,12.0,0.,12.0,0.,12.0,0.,12.0
1979-07-29 07:18:35.830 ,7,1,0.,12.0,0.,12.0,0.,12.0,0.,12.0
1979-07-29 07:18:47.830 ,7,0,0.,12.0,0.,12.0,0.,12.0,0.,12.0
1979-07-29 07:18:59.830 ,7,0,0.,12.0,0.,12.0,0.,12.0,0.,12.0
1979-07-29 07:19:11.830 ,6,1,0.,12.0,0.,12.0,0.,12.0,0.,12.0
1979-07-29 07:19:23.830 ,6,1,0.,12.0,0.,12.0,0.,12.0,0.,12.0
1979-07-29 07:19:35.830 ,6,0,0.,12.0,0.,12.0,0.,12.0,0.,12.0